Other Public Products
Issued by NWS Grand Forks, ND

Home | Current Version | Previous Version | Text Only | Print | Product List | Glossary On
Versions: 1 2 3 4 5 6 7 8 9 10 11 12 13 14 15 16 17 18 19 20 21 22 23 24 25 26 27 28 29 30 31 32 33 34 35 36 37 38 39 40 41 42 43 44 45 46 47 48 49 50
000
FPUS83 KFGF 140031
OPUFGF
PRAIRIE TO PINES WEATHER ROUNDUP
NATIONAL WEATHER SERVICE EASTERN NORTH DAKOTA/GRAND FORKS ND
600 PM CST SAT FEB 13 2016

 **SATELLITE DATA USED TO AUGMENT SKY COVER AT AUTOMATED STATIONS**
 *****  WEATHER ACROSS EASTERN NORTH DAKOTA  *****

CITY           SKY/WX    TMP DP  RH WIND       PRES   REMARKS
GRAND FORKS    CLOUDY    12   0  58 SE20      30.20F WCI  -6
6HR MIN TEMP:   2; 6HR MAX TEMP:  12;

GRAND FORKS AF CLOUDY    10   1  67 SE15      30.17F WCI  -6
GRAND CITY NWS NOT AVBL
BUXTON           N/A     12   3  65 SE17        N/A  WCI  -5
DEVILS LAKE    FLURRIES   8   2  76 SE24      30.04F WCI -13
6HR MIN TEMP:   3; 6HR MAX TEMP:   8; 6HR PCP: TRACE;

FARGO          CLOUDY    14   1  56 SE20G28   30.20F WCI  -3
6HR MIN TEMP:   6; 6HR MAX TEMP:  14;

WAHPETON ARPT  CLOUDY    12   0  57 SE22G30   30.22F WCI  -7
$$

 *****  WEATHER ACROSS CENTRAL AND WESTERN NORTH DAKOTA  *****

CITY           SKY/WX    TMP DP  RH WIND       PRES   REMARKS
JAMESTOWN      CLOUDY     9   1  70 SE17G25   30.05F WCI  -9
6HR MIN TEMP:   6; 6HR MAX TEMP:   9;

BISMARCK       LGT SNOW  18  12  77 S13       29.93F VSB 1   WCI   5
6HR MIN TEMP:  14; 6HR MAX TEMP:  19; 6HR PCP:  0.06;

MINOT          LGT SNOW  17  10  74 SE10      29.88F VSB 3/4 WCI   5
6HR MIN TEMP:  16; 6HR MAX TEMP:  19; 6HR PCP:  0.01;

MINOT AFB      FLURRIES  16  12  86 SE16      29.88S WCI   0
6HR MIN TEMP:  15; 6HR MAX TEMP:  18; 6HR PCP: TRACE;

GARRISON         N/A     14  11  87 S15       29.87F WCI  -1
6HR MIN TEMP:  11; 6HR MAX TEMP:  15; 6HR PCP:  0.05;

WILLISTON      CLOUDY    22  19  89 S5        29.78F WCI  16
6HR MIN TEMP:  20; 6HR MAX TEMP:  22; 6HR PCP:  0.32;

DICKINSON      LGT SNOW  21  18  88 S12       29.79F FOG     WCI   9
6HR MIN TEMP:  16; 6HR MAX TEMP:  21; 6HR PCP:  0.04;

HETTINGER      CLOUDY    22  20  92 S3        29.83S FOG
6HR MIN TEMP:  18; 6HR MAX TEMP:  24; 6HR PCP: TRACE;

$$

 *****  OTHER OBSERVATIONS NORTHEAST NORTH DAKOTA  *****

CITY           SKY/WX    TMP DP  RH WIND       PRES   REMARKS
WALHALLA       FAIR       7   0  72 SE17G25   30.14F WCI -12
LANGDON        CLOUDY     9   1  72 SE23G32   30.04F HAZE    WCI -12
CAVALIER       CLOUDY     9   0  66 SE15G23   30.17F WCI  -8
GRAFTON        CLOUDY    10   0  61 SE17G28   30.20F WCI  -7
CANDO          CLOUDY     9   3  78 SE22      30.05F WCI -11
FORT TOTTEN      N/A      7  -2  66 S14       29.95S WCI -10
ROLLA          LGT SNOW   7   1  78 S21G26    29.96F WCI -13
RUGBY          CLOUDY     9   5  85 SE20G29   29.95F FOG     WCI -11
 ***** THE ABOVE OBSERVATIONS ARE NON NWS ARE NOT QUALITY
        CONTROLLED AND MAY MIS-REPORT RAIN FOR SNOW...
$$

 *****  OTHER OBSERVATIONS SOUTHEAST NORTH DAKOTA *****

CITY           SKY/WX    TMP DP  RH WIND       PRES   REMARKS
COOPERSTOWN    NOT AVBL
VALLEY CITY    FLURRIES   9   1  72 SE21G26   30.10F WCI -11
OAKES          CLOUDY    14   5  67 SE21      30.08F WCI  -4
GWINNER        CLOUDY    12   7  79 SE21      30.12F WCI  -6
SHEYENNE NWR     N/A     10   0  64 SE15      29.95S WCI  -7
BUFFALO          N/A     10   0  65 SE22        N/A  WCI -10
WYNDMERE         N/A     10   1  67 SE25        N/A  WCI -10
 ***** THE ABOVE OBSERVATIONS ARE NON NWS ARE NOT QUALITY
       CONTROLLED AND MAY MIS-REPORT RAIN FOR SNOW...
$$

  *****  WEATHER ACROSS NORTHERN MINNESOTA  *****

CITY           SKY/WX    TMP DP  RH WIND       PRES   REMARKS
FLAG ISLAND    CLOUDY     1 -13  51 SE5       30.26F WCI  -8
WARROAD        CLOUDY     3  -9  55 SE8       30.26F WCI -10
ROSEAU         CLOUDY     7  -9  47 SE9       30.25F WCI  -7
HALLOCK        CLOUDY     9  -2  61 SE15      30.20F WCI  -8
THF RVR FALLS  CLOUDY    10  -6  48 SE12      30.22F WCI  -4
6HR MIN TEMP:   0; 6HR MAX TEMP:  10;

HALSTAD          N/A     13   1  61 SE18        N/A  WCI  -5
FOSSTON        CLOUDY     9  -9  43 SE10      30.23F WCI  -6
BAUDETTE       CLOUDY     3 -13  47 E6        30.26F WCI  -8
6HR MIN TEMP:  -3; 6HR MAX TEMP:   9;

WASKISH        CLOUDY     5 -11  47 SE5       30.28F WCI  -4
CROOKSTON      CLOUDY    12   0  57 SE22      30.22F WCI  -7
$$
  *****  WEATHER ACROSS CENTRAL AND WEST MINNESOTA  *****

CITY           SKY/WX    TMP DP  RH WIND       PRES   REMARKS
BEMIDJI        CLOUDY     5 -11  48 SE8       30.26F WCI  -8
PARK RAPIDS    CLOUDY     8  -9  45 SE14      30.26F WCI  -8
6HR MIN TEMP:   0; 6HR MAX TEMP:  11;

WADENA         CLOUDY     5  -6  61 SE13      30.26F WCI -12
DETROIT LAKES  CLOUDY    10   0  61 SE15G23   30.23F WCI  -6
MOORHEAD       CLOUDY    12   1  62 SE17G23   30.21F WCI  -5
FERGUS FALLS   CLOUDY    12   0  57 SE20      30.26F WCI  -6
ELBOW LAKE     CLOUDY    11   0  60 E18G25    30.23F WCI  -7
6HR MIN TEMP:   4; 6HR MAX TEMP:  12;

MORRIS MN      CLOUDY    10   0  61 SE21G31   30.23F WCI  -9
STAPLES        CLOUDY     3  -8  60 E5        30.30F WCI  -6
WHEATON        FLURRIES  10   3  72 SE24      30.23F WCI -10
$$
  *****  WEATHER ELSEWHERE ACROSS MINNESOTA  *****

CITY           SKY/WX    TMP DP  RH WIND       PRES   REMARKS
DULUTH         CLOUDY     6 -12  43 SW5       30.35F WCI  -3
6HR MIN TEMP:   1; 6HR MAX TEMP:  11;

INTRNTL FALLS  CLOUDY     0 -13  54 E8        30.32F WCI -14
6HR MIN TEMP:  -2; 6HR MAX TEMP:   7; 6HR PCP: TRACE;

ELY            CLOUDY    -8 -11  84 CALM      30.33F
CLOQUET        CLOUDY     3 -17  39 CALM      30.36F
BRAINERD       CLOUDY     5 -11  47 CALM      30.34F
6HR MIN TEMP:   0; 6HR MAX TEMP:   9;

HIBBING        CLOUDY     4 -15  41 SE3       30.34F
6HR MIN TEMP:  -1; 6HR MAX TEMP:   9;

ALEXANDRIA     CLOUDY    10  -1  61 SE15G23   30.26F WCI  -7
6HR MIN TEMP:   3; 6HR MAX TEMP:  11;

SAINT CLOUD    CLOUDY     7  -5  57 SE5       30.37F WCI  -2
6HR MIN TEMP:   1; 6HR MAX TEMP:   9;

MINNEAPOLIS    CLOUDY     7  -8  50 SE7       30.43F WCI  -5
6HR MIN TEMP:   5; 6HR MAX TEMP:  10;

$$

  *****  WEATHER ACROSS SOUTH DAKOTA  *****

CITY           SKY/WX    TMP DP  RH WIND       PRES   REMARKS
SIOUX FALLS    CLOUDY    11   3  70 SE14      30.21F WCI  -5
6HR MIN TEMP:   6; 6HR MAX TEMP:  11; 6HR PCP: TRACE;

BROOKINGS      CLOUDY     9   0  67 SE24G32   30.15F WCI -12
WATERTOWN      CLOUDY    10  -1  61 SE20G28   30.11F WCI  -9
6HR MIN TEMP:   6; 6HR MAX TEMP:  10;

HURON          CLOUDY    14   5  67 SE21G29   30.11F WCI  -4
6HR MIN TEMP:  10; 6HR MAX TEMP:  14;

SISSETON         N/A     10   2  69 S22       30.18F WCI -10
ABERDEEN       LGT SNOW  15   8  73 S23G31    30.06F VSB 3/4 WCI  -3
6HR MIN TEMP:  12; 6HR MAX TEMP:  16; 6HR PCP: TRACE;

MITCHELL       CLOUDY    14   8  77 S26G33    30.15F WCI  -6
PIERRE         MOCLDY    27  23  85 SE24      29.85F WCI  12
6HR MIN TEMP:  23; 6HR MAX TEMP:  28; 6HR PCP:  0.05;

MOBRIDGE       CLOUDY    21  16  81 SE13      29.89R WCI   9
RAPID CITY     LGT RAIN  35  33  92 NW32G45   29.85R FOG     WCI  21
6HR MIN TEMP:  40; 6HR MAX TEMP:  52;

$$

  *****  SOME WEATHER IN NEARBY STATES *****

CITY           SKY/WX    TMP DP  RH WIND       PRES   REMARKS
GLASGOW MT     CLOUDY    39  32  76 NW20G31   29.81R
6HR MIN TEMP:  25; 6HR MAX TEMP:  40; 6HR PCP:  0.03;

GREAT FALLS MT CLEAR     44  19  36 W20       29.98R
6HR MIN TEMP:  44; 6HR MAX TEMP:  50;

CHEYENNE WY    PTCLDY    50  17  27 W26G41    29.91F
6HR MIN TEMP:  50; 6HR MAX TEMP:  59;

SCOTTSBLUFF NE PTCLDY    58  16  19 W23G40    29.81F
6HR MIN TEMP:  39; 6HR MAX TEMP:  60;

OMAHA NE       CLOUDY    19   3  49 SE20      30.30F WCI   3
6HR MIN TEMP:  14; 6HR MAX TEMP:  19;

DES MOINES IA  CLOUDY    15  -1  49 SE12      30.40F WCI   2
6HR MIN TEMP:  10; 6HR MAX TEMP:  15;

DAVENPORT IA   CLOUDY    16  -6  37 E3        30.49S
6HR MIN TEMP:  12; 6HR MAX TEMP:  18;

CHICAGO IL     PTCLDY    13  -5  44 NW5       30.49F WCI   5
6HR MIN TEMP:  12; 6HR MAX TEMP:  17;

EAU CLAIRE WI  CLOUDY     4 -13  45 CALM      30.45F
6HR MIN TEMP:   1; 6HR MAX TEMP:   8;

LA CROSSE WI   CLOUDY     5  -9  52 W3        30.48F
6HR MIN TEMP:   5; 6HR MAX TEMP:  14;

$$

  *****  SOME NATIONAL WEATHER *****

CITY           SKY/WX    TMP DP  RH WIND       PRES   REMARKS
LA GUARDIA NY  PTCLDY    11  -7  44 NW28G37   30.28R WCI -10       C1F1C2F2C3F3C4F4C5F5C6F6C7F7C8F8C9F9CaFaCbFbCcFcCdFdCe!


USA.gov is the U.S. government's official web portal to all federal, state and local government web resources and services.